owner,sensor,date,latitude,longitude,vertical_datum,direction_of_sea_water_velocity,sea_water_speed,upward_sea_water_velocity,qcFlag 
COMPS,ioos:station:USF.COMPS:C10:1,2012-01-01T00:00:00Z,27.1690,-82.9260,4.0,180.0,6.0,-99999.0,'1111122,1111122,1199999999' 
COMPS,ioos:station:USF.COMPS:C10:1,2012-01-01T01:00:00Z,27.1690,-82.9260,4.0,24.567171320601,38.483762809788,-99999.0,'1111122,1111122,1199999999' 
COMPS,ioos:station:USF.COMPS:C10:1,2012-01-01T02:00:00Z,27.1690,-82.9260,4.0,24.567171320601,38.483762809788,-99999.0,'1111122,1111122,1199999999' 
COMPS,ioos:station:USF.COMPS:C10:1,2012-01-01T03:00:00Z,27.1690,-82.9260,4.0,24.567171320601,38.483762809788,-99999.0,'1111122,1111122,1199999999' 
COMPS,ioos:station:USF.COMPS:C10:1,2012-01-01T04:00:00Z,27.1690,-82.9260,4.0,24.567171320601,38.483762809788,-99999.0,'1111122,1111122,1199999999' 
COMPS,ioos:station:USF.COMPS:C10:1,2012-01-01T05:00:00Z,27.1690,-82.9260,4.0,24.567171320601,38.483762809788,-99999.0,'1111122,1111122,1199999999' 
COMPS,ioos:station:USF.COMPS:C10:1,2012-01-01T06:00:00Z,27.1690,-82.9260,4.0,0.0,0.0,-99999.0,'1114422,1114422,1199999999' 
COMPS,ioos:station:USF.COMPS:C10:1,2012-01-01T07:00:00Z,27.1690,-82.9260,4.0,0.0,0.0,-99999.0,'1114422,1114422,1199999999' 
COMPS,ioos:station:USF.COMPS:C10:1,2012-01-01T09:00:00Z,27.1690,-82.9260,4.0,0.0,0.0,-99999.0,'1114422,1114422,1199999999' 
COMPS,ioos:station:USF.COMPS:C10:1,2012-01-01T15:00:00Z,27.1690,-82.9260,4.0,180.0,1.0,-99999.0,'1113322,1111122,1199999999' 
COMPS,ioos:station:USF.COMPS:C10:1,2012-01-01T16:00:00Z,27.1690,-82.9260,4.0,0.0,0.0,-99999.0,'1114422,1114422,1199999999' 
COMPS,ioos:station:USF.COMPS:C10:1,2012-01-01T17:00:00Z,27.1690,-82.9260,4.0,90.0,1.0,-99999.0,'1113322,1111122,1199999999' 
COMPS,ioos:station:USF.COMPS:C10:1,2012-01-01T18:00:00Z,27.1690,-82.9260,4.0,90.0,3.0,-99999.0,'1111122,1111122,1199999999' 
COMPS,ioos:station:USF.COMPS:C10:1,2012-01-01T19:00:00Z,27.1690,-82.9260,4.0,104.03624346793,4.1231056256177,-99999.0,'1111122,1111122,1199999999' 
COMPS,ioos:station:USF.COMPS:C10:1,2012-01-01T20:00:00Z,27.1690,-82.9260,4.0,135.0,4.2426406871193,-99999.0,'1111122,1111122,1199999999' 
COMPS,ioos:station:USF.COMPS:C10:1,2012-01-01T21:00:00Z,27.1690,-82.9260,4.0,123.69006752598,3.605551275464,-99999.0,'1111122,1111122,1199999999' 
COMPS,ioos:station:USF.COMPS:C10:1,2012-01-01T22:00:00Z,27.1690,-82.9260,4.0,168.69006752598,5.0990195135928,-99999.0,'1111122,1111122,1199999999' 
COMPS,ioos:station:USF.COMPS:C10:1,2012-01-01T23:00:00Z,27.1690,-82.9260,4.0,158.19859051365,5.3851648071345,-99999.0,'1111122,1111122,1199999999' 
COMPS,ioos:station:USF.COMPS:C10:1,2012-01-02T00:00:00Z,27.1690,-82.9260,4.0,0.0,0.0,-99999.0,'1114422,1114422,1199999999' 
COMPS,ioos:station:USF.COMPS:C10:1,2012-01-02T01:00:00Z,27.1690,-82.9260,4.0,206.56505117708,2.2360679774998,-99999.0,'1111122,1111122,1199999999' 
COMPS,ioos:station:USF.COMPS:C10:1,2012-01-02T03:00:00Z,27.1690,-82.9260,4.0,24.567171320601,38.483762809788,-99999.0,'1111122,1111122,1199999999' 
COMPS,ioos:station:USF.COMPS:C10:1,2012-01-02T04:00:00Z,27.1690,-82.9260,4.0,25.201123645475,37.576588456112,-99999.0,'1111122,1111122,1199999999' 
COMPS,ioos:station:USF.COMPS:C10:1,2012-01-02T12:00:00Z,27.1690,-82.9260,4.0,0.0,0.0,-99999.0,'1114422,1114422,1199999999' 
COMPS,ioos:station:USF.COMPS:C10:1,2012-01-02T14:00:00Z,27.1690,-82.9260,4.0,169.69515353123,11.180339887499,-99999.0,'1111122,1111122,1199999999' 
COMPS,ioos:station:USF.COMPS:C10:1,2012-01-02T15:00:00Z,27.1690,-82.9260,4.0,175.91438322003,14.035668847618,-99999.0,'1111122,1111122,1199999999' 
COMPS,ioos:station:USF.COMPS:C10:1,2012-01-02T16:00:00Z,27.1690,-82.9260,4.0,164.05460409908,21.840329667842,-99999.0,'1111122,1111122,1199999999' 
COMPS,ioos:station:USF.COMPS:C10:1,2012-01-02T17:00:00Z,27.1690,-82.9260,4.0,162.47443162628,19.924858845171,-99999.0,'1111122,1111122,1199999999' 
COMPS,ioos:station:USF.COMPS:C10:1,2012-01-02T18:00:00Z,27.1690,-82.9260,4.0,175.91438322003,14.035668847618,-99999.0,'1111122,1111122,1199999999' 
COMPS,ioos:station:USF.COMPS:C10:1,2012-01-02T19:00:00Z,27.1690,-82.9260,4.0,158.74949449287,19.313207915828,-99999.0,'1111122,1111122,1199999999' 
COMPS,ioos:station:USF.COMPS:C10:1,2012-01-02T20:00:00Z,27.1690,-82.9260,4.0,166.5042667192,25.709920264365,-99999.0,'1111122,1111122,1199999999' 
COMPS,ioos:station:USF.COMPS:C10:1,2012-01-02T21:00:00Z,27.1690,-82.9260,4.0,153.43494882292,22.360679774998,-99999.0,'1111122,1111122,1199999999' 
COMPS,ioos:station:USF.COMPS:C10:1,2012-01-02T22:00:00Z,27.1690,-82.9260,4.0,151.18920625703,22.825424421027,-99999.0,'1111122,1111122,1199999999' 
COMPS,ioos:station:USF.COMPS:C10:1,2012-01-03T00:00:00Z,27.1690,-82.9260,4.0,149.53445508054,19.723082923316,-99999.0,'1111122,1111122,1199999999' 
COMPS,ioos:station:USF.COMPS:C10:1,2012-01-03T01:00:00Z,27.1690,-82.9260,4.0,164.74488129694,11.401754250991,-99999.0,'1111122,1111122,1199999999' 
COMPS,ioos:station:USF.COMPS:C10:1,2012-01-03T02:00:00Z,27.1690,-82.9260,4.0,154.44003482818,25.495097567964,-99999.0,'1111122,1111122,1199999999' 
COMPS,ioos:station:USF.COMPS:C10:1,2012-01-03T03:00:00Z,27.1690,-82.9260,4.0,153.43494882292,15.652475842499,-99999.0,'1111122,1111122,1199999999' 
COMPS,ioos:station:USF.COMPS:C10:1,2012-01-03T04:00:00Z,27.1690,-82.9260,4.0,162.64597536374,16.76305461424,-99999.0,'1111122,1111122,1199999999' 
COMPS,ioos:station:USF.COMPS:C10:1,2012-01-03T05:00:00Z,27.1690,-82.9260,4.0,144.78240703181,20.808652046685,-99999.0,'1111122,1111122,1199999999' 
COMPS,ioos:station:USF.COMPS:C10:1,2012-01-03T06:00:00Z,27.1690,-82.9260,4.0,142.30575953331,27.802877548916,-99999.0,'1111122,1111122,1199999999' 
COMPS,ioos:station:USF.COMPS:C10:1,2012-01-03T11:00:00Z,27.1690,-82.9260,4.0,22.833654177918,41.231056256177,-99999.0,'1111122,1111122,1199999999' 
COMPS,ioos:station:USF.COMPS:C10:1,2012-01-03T13:00:00Z,27.1690,-82.9260,4.0,154.72227776445,39.812058474789,-99999.0,'1111122,1111122,1199999999' 
COMPS,ioos:station:USF.COMPS:C10:1,2012-01-03T14:00:00Z,27.1690,-82.9260,4.0,152.17590361575,40.706264874095,-99999.0,'1111122,1111122,1199999999' 
COMPS,ioos:station:USF.COMPS:C10:1,2012-01-03T15:00:00Z,27.1690,-82.9260,4.0,147.09475707701,40.496913462633,-99999.0,'1111122,1111122,1199999999' 
COMPS,ioos:station:USF.COMPS:C10:1,2012-01-03T16:00:00Z,27.1690,-82.9260,4.0,150.80251395394,38.948684188301,-99999.0,'1111122,1111122,1199999999' 
COMPS,ioos:station:USF.COMPS:C10:1,2012-01-03T17:00:00Z,27.1690,-82.9260,4.0,150.80251395394,38.948684188301,-99999.0,'1111122,1111122,1199999999' 
COMPS,ioos:station:USF.COMPS:C10:1,2012-01-03T18:00:00Z,27.1690,-82.9260,4.0,148.17255342333,34.132096331752,-99999.0,'1111122,1111122,1199999999' 
COMPS,ioos:station:USF.COMPS:C10:1,2012-01-03T19:00:00Z,27.1690,-82.9260,4.0,154.79887635452,37.576588456112,-99999.0,'1111122,1111122,1199999999' 
COMPS,ioos:station:USF.COMPS:C10:1,2012-01-03T20:00:00Z,27.1690,-82.9260,4.0,155.13630342825,45.18849411078,-99999.0,'1111122,1111122,1199999999' 
COMPS,ioos:station:USF.COMPS:C10:1,2012-01-03T21:00:00Z,27.1690,-82.9260,4.0,148.29857033049,39.962482405376,-99999.0,'1111122,1111122,1199999999' 
COMPS,ioos:station:USF.COMPS:C10:1,2012-01-03T22:00:00Z,27.1690,-82.9260,4.0,148.39249775375,30.528675044947,-99999.0,'1111122,1111122,1199999999' 
COMPS,ioos:station:USF.COMPS:C10:1,2012-01-03T23:00:00Z,27.1690,-82.9260,4.0,153.43494882292,35.777087639997,-99999.0,'1111122,1111122,1199999999' 
COMPS,ioos:station:USF.COMPS:C10:1,2012-01-04T00:00:00Z,27.1690,-82.9260,4.0,144.68878656037,29.410882339705,-99999.0,'1111122,1111122,1199999999' 
COMPS,ioos:station:USF.COMPS:C10:1,2012-01-04T01:00:00Z,27.1690,-82.9260,4.0,156.25050550713,27.313000567495,-99999.0,'1111122,1111122,1199999999' 
COMPS,ioos:station:USF.COMPS:C10:1,2012-01-04T02:00:00Z,27.1690,-82.9260,4.0,162.34987578007,23.08679276123,-99999.0,'1111122,1111122,1199999999' 
COMPS,ioos:station:USF.COMPS:C10:1,2012-01-04T03:00:00Z,27.1690,-82.9260,4.0,169.69515353123,22.360679774998,-99999.0,'1111122,1111122,1199999999' 
COMPS,ioos:station:USF.COMPS:C10:1,2012-01-04T04:00:00Z,27.1690,-82.9260,4.0,180.0,18.0,-99999.0,'1111122,1111122,1199999999' 
COMPS,ioos:station:USF.COMPS:C10:1,2012-01-04T05:00:00Z,27.1690,-82.9260,4.0,180.0,18.0,-99999.0,'1111122,1111122,1199999999' 
COMPS,ioos:station:USF.COMPS:C10:1,2012-01-04T06:00:00Z,27.1690,-82.9260,4.0,180.0,13.0,-99999.0,'1111122,1111122,1199999999' 
COMPS,ioos:station:USF.COMPS:C10:1,2012-01-04T07:00:00Z,27.1690,-82.9260,4.0,155.55604521958,12.083045973595,-99999.0,'1111122,1111122,1199999999' 
COMPS,ioos:station:USF.COMPS:C10:1,2012-01-04T08:00:00Z,27.1690,-82.9260,4.0,155.55604521958,12.083045973595,-99999.0,'1111122,1111122,1199999999' 
COMPS,ioos:station:USF.COMPS:C10:1,2012-01-04T11:00:00Z,27.1690,-82.9260,4.0,21.317912275462,44.011362169331,-99999.0,'1111122,1111122,1199999999' 
COMPS,ioos:station:USF.COMPS:C10:1,2012-01-04T14:00:00Z,27.1690,-82.9260,4.0,167.00538320808,13.341664064126,-99999.0,'1111122,1111122,1199999999' 
COMPS,ioos:station:USF.COMPS:C10:1,2012-01-04T15:00:00Z,27.1690,-82.9260,4.0,165.96375653207,12.369316876853,-99999.0,'1111122,1111122,1199999999' 
COMPS,ioos:station:USF.COMPS:C10:1,2012-01-04T16:00:00Z,27.1690,-82.9260,4.0,170.53767779197,12.165525060596,-99999.0,'1111122,1111122,1199999999' 
COMPS,ioos:station:USF.COMPS:C10:1,2012-01-04T17:00:00Z,27.1690,-82.9260,4.0,163.30075576601,10.440306508911,-99999.0,'1111122,1111122,1199999999' 
COMPS,ioos:station:USF.COMPS:C10:1,2012-01-04T18:00:00Z,27.1690,-82.9260,4.0,159.44395478042,8.5440037453175,-99999.0,'1111122,1111122,1199999999' 
COMPS,ioos:station:USF.COMPS:C10:1,2012-01-04T19:00:00Z,27.1690,-82.9260,4.0,170.53767779197,6.0827625302982,-99999.0,'1111122,1111122,1199999999' 
COMPS,ioos:station:USF.COMPS:C10:1,2012-01-04T20:00:00Z,27.1690,-82.9260,4.0,180.0,5.0,-99999.0,'1111122,1111122,1199999999' 
COMPS,ioos:station:USF.COMPS:C10:1,2012-01-04T21:00:00Z,27.1690,-82.9260,4.0,173.65980825409,9.0553851381374,-99999.0,'1111122,1111122,1199999999' 
COMPS,ioos:station:USF.COMPS:C10:1,2012-01-04T22:00:00Z,27.1690,-82.9260,4.0,164.05460409908,7.2801098892805,-99999.0,'1111122,1111122,1199999999' 
COMPS,ioos:station:USF.COMPS:C10:1,2012-01-04T23:00:00Z,27.1690,-82.9260,4.0,161.56505117708,9.4868329805051,-99999.0,'1111122,1111122,1199999999' 
COMPS,ioos:station:USF.COMPS:C10:1,2012-01-05T00:00:00Z,27.1690,-82.9260,4.0,156.80140948635,15.231546211728,-99999.0,'1111122,1111122,1199999999' 
COMPS,ioos:station:USF.COMPS:C10:1,2012-01-05T01:00:00Z,27.1690,-82.9260,4.0,173.65980825409,9.0553851381374,-99999.0,'1111122,1111122,1199999999' 
COMPS,ioos:station:USF.COMPS:C10:1,2012-01-05T02:00:00Z,27.1690,-82.9260,4.0,167.47119229085,9.2195444572929,-99999.0,'1111122,1111122,1199999999' 
COMPS,ioos:station:USF.COMPS:C10:1,2012-01-05T03:00:00Z,27.1690,-82.9260,4.0,180.0,11.0,-99999.0,'1111122,1111122,1199999999' 
COMPS,ioos:station:USF.COMPS:C10:1,2012-01-05T04:00:00Z,27.1690,-82.9260,4.0,190.30484646877,11.180339887499,-99999.0,'1111122,1111122,1199999999' 
COMPS,ioos:station:USF.COMPS:C10:1,2012-01-05T05:00:00Z,27.1690,-82.9260,4.0,200.55604521958,8.5440037453175,-99999.0,'1111122,1111122,1199999999' 
COMPS,ioos:station:USF.COMPS:C10:1,2012-01-05T06:00:00Z,27.1690,-82.9260,4.0,195.94539590092,7.2801098892805,-99999.0,'1111122,1111122,1199999999' 
COMPS,ioos:station:USF.COMPS:C10:1,2012-01-05T07:00:00Z,27.1690,-82.9260,4.0,203.19859051365,7.6157731058639,-99999.0,'1111122,1111122,1199999999' 
COMPS,ioos:station:USF.COMPS:C10:1,2012-01-05T13:00:00Z,27.1690,-82.9260,4.0,206.56505117708,2.2360679774998,-99999.0,'1111122,1111122,1199999999' 
COMPS,ioos:station:USF.COMPS:C10:1,2012-01-05T14:00:00Z,27.1690,-82.9260,4.0,225.0,1.4142135623731,-99999.0,'1111122,1111122,1199999999' 
COMPS,ioos:station:USF.COMPS:C10:1,2012-01-05T15:00:00Z,27.1690,-82.9260,4.0,180.0,2.0,-99999.0,'1111122,1111122,1199999999' 
COMPS,ioos:station:USF.COMPS:C10:1,2012-01-05T16:00:00Z,27.1690,-82.9260,4.0,180.0,2.0,-99999.0,'1111122,1111122,1199999999' 
COMPS,ioos:station:USF.COMPS:C10:1,2012-01-05T17:00:00Z,27.1690,-82.9260,4.0,180.0,4.0,-99999.0,'1111122,1111122,1199999999' 
COMPS,ioos:station:USF.COMPS:C10:1,2012-01-05T18:00:00Z,27.1690,-82.9260,4.0,180.0,3.0,-99999.0,'1111122,1111122,1199999999' 
COMPS,ioos:station:USF.COMPS:C10:1,2012-01-05T19:00:00Z,27.1690,-82.9260,4.0,180.0,4.0,-99999.0,'1111122,1111122,1199999999' 
COMPS,ioos:station:USF.COMPS:C10:1,2012-01-05T20:00:00Z,27.1690,-82.9260,4.0,170.53767779197,6.0827625302982,-99999.0,'1111122,1111122,1199999999' 
COMPS,ioos:station:USF.COMPS:C10:1,2012-01-05T21:00:00Z,27.1690,-82.9260,4.0,180.0,3.0,-99999.0,'1111122,1111122,1199999999' 
COMPS,ioos:station:USF.COMPS:C10:1,2012-01-05T22:00:00Z,27.1690,-82.9260,4.0,165.96375653207,4.1231056256177,-99999.0,'1111122,1111122,1199999999' 
COMPS,ioos:station:USF.COMPS:C10:1,2012-01-05T23:00:00Z,27.1690,-82.9260,4.0,180.0,4.0,-99999.0,'1111122,1111122,1199999999' 
COMPS,ioos:station:USF.COMPS:C10:1,2012-01-06T00:00:00Z,27.1690,-82.9260,4.0,180.0,5.0,-99999.0,'1111122,1111122,1199999999' 
COMPS,ioos:station:USF.COMPS:C10:1,2012-01-06T01:00:00Z,27.1690,-82.9260,4.0,149.03624346793,5.8309518948453,-99999.0,'1111122,1111122,1199999999' 
COMPS,ioos:station:USF.COMPS:C10:1,2012-01-06T03:00:00Z,27.1690,-82.9260,4.0,191.30993247402,5.0990195135928,-99999.0,'1111122,1111122,1199999999' 
COMPS,ioos:station:USF.COMPS:C10:1,2012-01-06T04:00:00Z,27.1690,-82.9260,4.0,189.46232220803,6.0827625302982,-99999.0,'1111122,1111122,1199999999' 
COMPS,ioos:station:USF.COMPS:C10:1,2012-01-06T05:00:00Z,27.1690,-82.9260,4.0,216.86989764584,5.0,-99999.0,'1111122,1111122,1199999999' 
COMPS,ioos:station:USF.COMPS:C10:1,2012-01-06T06:00:00Z,27.1690,-82.9260,4.0,24.567171320601,38.483762809788,-99999.0,'1111122,1111122,1199999999' 
COMPS,ioos:station:USF.COMPS:C10:1,2012-01-06T09:00:00Z,27.1690,-82.9260,4.0,25.201123645475,37.576588456112,-99999.0,'1111122,1111122,1199999999' 
COMPS,ioos:station:USF.COMPS:C10:1,2012-01-06T10:00:00Z,27.1690,-82.9260,4.0,25.201123645475,37.576588456112,-99999.0,'1111122,1111122,1199999999' 
COMPS,ioos:station:USF.COMPS:C10:1,2012-01-06T11:00:00Z,27.1690,-82.9260,4.0,25.201123645475,37.576588456112,-99999.0,'1111122,1111122,1199999999' 
COMPS,ioos:station:USF.COMPS:C10:1,2012-01-06T15:00:00Z,27.1690,-82.9260,4.0,45.0,2.8284271247462,-99999.0,'1111122,1111122,1199999999' 
COMPS,ioos:station:USF.COMPS:C10:1,2012-01-06T16:00:00Z,27.1690,-82.9260,4.0,26.565051177078,2.2360679774998,-99999.0,'1111122,1111122,1199999999' 
COMPS,ioos:station:USF.COMPS:C10:1,2012-01-06T17:00:00Z,27.1690,-82.9260,4.0,0.0,2.0,-99999.0,'1111122,1114422,1199999999' 
COMPS,ioos:station:USF.COMPS:C10:1,2012-01-06T18:00:00Z,27.1690,-82.9260,4.0,0.0,2.0,-99999.0,'1111122,1114422,1199999999' 
COMPS,ioos:station:USF.COMPS:C10:1,2012-01-06T19:00:00Z,27.1690,-82.9260,4.0,341.56505117708,3.1622776601684,-99999.0,'1111122,1111122,1199999999' 
COMPS,ioos:station:USF.COMPS:C10:1,2012-01-09T19:00:00Z,27.1690,-82.9260,4.0,333.43494882292,2.2360679774998,-99999.0,'1111122,1111122,1199999999' 
COMPS,ioos:station:USF.COMPS:C10:1,2012-01-09T20:00:00Z,27.1690,-82.9260,4.0,0.0,1.0,-99999.0,'1113322,1114422,1199999999' 
COMPS,ioos:station:USF.COMPS:C10:1,2012-01-09T21:00:00Z,27.1690,-82.9260,4.0,0.0,1.0,-99999.0,'1113322,1114422,1199999999' 
COMPS,ioos:station:USF.COMPS:C10:1,2012-01-09T22:00:00Z,27.1690,-82.9260,4.0,0.0,2.0,-99999.0,'1111122,1114422,1199999999' 
COMPS,ioos:station:USF.COMPS:C10:1,2012-01-09T23:00:00Z,27.1690,-82.9260,4.0,68.198590513648,5.3851648071345,-99999.0,'1111122,1111122,1199999999' 
COMPS,ioos:station:USF.COMPS:C10:1,2012-01-10T00:00:00Z,27.1690,-82.9260,4.0,71.565051177078,6.3245553203368,-99999.0,'1111122,1111122,1199999999' 
COMPS,ioos:station:USF.COMPS:C10:1,2012-01-10T01:00:00Z,27.1690,-82.9260,4.0,90.0,5.0,-99999.0,'1111122,1111122,1199999999' 
COMPS,ioos:station:USF.COMPS:C10:1,2012-01-10T03:00:00Z,27.1690,-82.9260,4.0,32.619243071193,29.681644159312,-99999.0,'1111122,1111122,1199999999' 
COMPS,ioos:station:USF.COMPS:C10:1,2012-01-10T05:00:00Z,27.1690,-82.9260,4.0,0.0,0.0,-99999.0,'1114422,1114422,1199999999' 
COMPS,ioos:station:USF.COMPS:C10:1,2012-01-10T06:00:00Z,27.1690,-82.9260,4.0,0.0,0.0,-99999.0,'1114422,1114422,1199999999' 
COMPS,ioos:station:USF.COMPS:C10:1,2012-01-10T14:00:00Z,27.1690,-82.9260,4.0,45.0,2.8284271247462,-99999.0,'1111122,1111122,1199999999' 
COMPS,ioos:station:USF.COMPS:C10:1,2012-01-10T15:00:00Z,27.1690,-82.9260,4.0,18.434948822922,3.1622776601684,-99999.0,'1111122,1111122,1199999999' 
COMPS,ioos:station:USF.COMPS:C10:1,2012-01-10T16:00:00Z,27.1690,-82.9260,4.0,0.0,3.0,-99999.0,'1111122,1114422,1199999999' 
COMPS,ioos:station:USF.COMPS:C10:1,2012-01-10T17:00:00Z,27.1690,-82.9260,4.0,0.0,4.0,-99999.0,'1111122,1114422,1199999999' 
COMPS,ioos:station:USF.COMPS:C10:1,2012-01-10T18:00:00Z,27.1690,-82.9260,4.0,315.0,4.2426406871193,-99999.0,'1111122,1111122,1199999999' 
COMPS,ioos:station:USF.COMPS:C10:1,2012-01-10T19:00:00Z,27.1690,-82.9260,4.0,303.69006752598,3.605551275464,-99999.0,'1111122,1111122,1199999999' 
COMPS,ioos:station:USF.COMPS:C10:1,2012-01-10T20:00:00Z,27.1690,-82.9260,4.0,315.0,4.2426406871193,-99999.0,'1111122,1111122,1199999999' 
COMPS,ioos:station:USF.COMPS:C10:1,2012-01-10T21:00:00Z,27.1690,-82.9260,4.0,303.69006752598,3.605551275464,-99999.0,'1111122,1111122,1199999999' 
COMPS,ioos:station:USF.COMPS:C10:1,2012-01-10T22:00:00Z,27.1690,-82.9260,4.0,0.0,3.0,-99999.0,'1111122,1114422,1199999999' 
COMPS,ioos:station:USF.COMPS:C10:1,2012-01-10T23:00:00Z,27.1690,-82.9260,4.0,0.0,7.0,-99999.0,'1111122,1114422,1199999999' 
COMPS,ioos:station:USF.COMPS:C10:1,2012-01-11T00:00:00Z,27.1690,-82.9260,4.0,30.963756532074,11.661903789691,-99999.0,'1111122,1111122,1199999999' 
COMPS,ioos:station:USF.COMPS:C10:1,2012-01-11T01:00:00Z,27.1690,-82.9260,4.0,45.0,12.727922061358,-99999.0,'1111122,1111122,1199999999' 
COMPS,ioos:station:USF.COMPS:C10:1,2012-01-11T02:00:00Z,27.1690,-82.9260,4.0,66.801409486352,7.6157731058639,-99999.0,'1111122,1111122,1199999999' 
COMPS,ioos:station:USF.COMPS:C10:1,2012-01-11T03:00:00Z,27.1690,-82.9260,4.0,90.0,7.0,-99999.0,'1111122,1111122,1199999999' 
COMPS,ioos:station:USF.COMPS:C10:1,2012-01-11T05:00:00Z,27.1690,-82.9260,4.0,116.56505117708,6.7082039324994,-99999.0,'1111122,1111122,1199999999' 
COMPS,ioos:station:USF.COMPS:C10:1,2012-01-11T06:00:00Z,27.1690,-82.9260,4.0,126.86989764584,5.0,-99999.0,'1111122,1111122,1199999999' 
COMPS,ioos:station:USF.COMPS:C10:1,2012-01-11T09:00:00Z,27.1690,-82.9260,4.0,43.264295411072,23.345235059858,-99999.0,'1111122,1111122,1199999999' 
COMPS,ioos:station:USF.COMPS:C10:1,2012-01-11T10:00:00Z,27.1690,-82.9260,4.0,45.0,22.62741699797,-99999.0,'1111122,1111122,1199999999' 
COMPS,ioos:station:USF.COMPS:C10:1,2012-01-11T11:00:00Z,27.1690,-82.9260,4.0,0.0,0.0,-99999.0,'1114422,1114422,1199999999' 
COMPS,ioos:station:USF.COMPS:C10:1,2012-01-11T12:00:00Z,27.1690,-82.9260,4.0,0.0,0.0,-99999.0,'1114422,1114422,1199999999' 
COMPS,ioos:station:USF.COMPS:C10:1,2012-01-11T15:00:00Z,27.1690,-82.9260,4.0,296.56505117708,4.4721359549996,-99999.0,'1111122,1111122,1199999999' 
COMPS,ioos:station:USF.COMPS:C10:1,2012-01-11T16:00:00Z,27.1690,-82.9260,4.0,9.4623222080256,6.0827625302982,-99999.0,'1111122,1111122,1199999999' 
COMPS,ioos:station:USF.COMPS:C10:1,2012-01-11T17:00:00Z,27.1690,-82.9260,4.0,0.0,3.0,-99999.0,'1111122,1114422,1199999999' 
COMPS,ioos:station:USF.COMPS:C10:1,2012-01-11T18:00:00Z,27.1690,-82.9260,4.0,0.0,5.0,-99999.0,'1111122,1114422,1199999999' 
COMPS,ioos:station:USF.COMPS:C10:1,2012-01-11T19:00:00Z,27.1690,-82.9260,4.0,300.96375653207,5.8309518948453,-99999.0,'1111122,1111122,1199999999' 
COMPS,ioos:station:USF.COMPS:C10:1,2012-01-11T20:00:00Z,27.1690,-82.9260,4.0,90.0,4.0,-99999.0,'1111122,1111122,1199999999' 
COMPS,ioos:station:USF.COMPS:C10:1,2012-01-11T21:00:00Z,27.1690,-82.9260,4.0,270.0,1.0,-99999.0,'1113322,1111122,1199999999' 
COMPS,ioos:station:USF.COMPS:C10:1,2012-01-11T22:00:00Z,27.1690,-82.9260,4.0,45.0,22.62741699797,-99999.0,'1111122,1111122,1199999999' 
COMPS,ioos:station:USF.COMPS:C10:1,2012-01-12T17:00:00Z,27.1690,-82.9260,4.0,180.0,5.0,-99999.0,'1111122,1111122,1199999999' 
COMPS,ioos:station:USF.COMPS:C10:1,2012-01-12T18:00:00Z,27.1690,-82.9260,4.0,171.86989764584,7.0710678118655,-99999.0,'1111122,1111122,1199999999' 
COMPS,ioos:station:USF.COMPS:C10:1,2012-01-12T19:00:00Z,27.1690,-82.9260,4.0,236.30993247402,7.211102550928,-99999.0,'1111122,1111122,1199999999' 
COMPS,ioos:station:USF.COMPS:C10:1,2012-01-12T20:00:00Z,27.1690,-82.9260,4.0,251.56505117708,3.1622776601684,-99999.0,'1111122,1111122,1199999999' 
COMPS,ioos:station:USF.COMPS:C10:1,2012-01-12T21:00:00Z,27.1690,-82.9260,4.0,258.69006752598,5.0990195135928,-99999.0,'1111122,1111122,1199999999' 
COMPS,ioos:station:USF.COMPS:C10:1,2012-01-12T22:00:00Z,27.1690,-82.9260,4.0,180.0,1.0,-99999.0,'1113322,1111122,1199999999' 
COMPS,ioos:station:USF.COMPS:C10:1,2012-01-12T23:00:00Z,27.1690,-82.9260,4.0,90.0,1.0,-99999.0,'1113322,1111122,1199999999' 
COMPS,ioos:station:USF.COMPS:C10:1,2012-01-13T00:00:00Z,27.1690,-82.9260,4.0,135.0,4.2426406871193,-99999.0,'1111122,1111122,1199999999' 
COMPS,ioos:station:USF.COMPS:C10:1,2012-01-13T01:00:00Z,27.1690,-82.9260,4.0,90.0,3.0,-99999.0,'1111122,1111122,1199999999' 
COMPS,ioos:station:USF.COMPS:C10:1,2012-01-13T02:00:00Z,27.1690,-82.9260,4.0,90.0,4.0,-99999.0,'1111122,1111122,1199999999' 
COMPS,ioos:station:USF.COMPS:C10:1,2012-01-13T04:00:00Z,27.1690,-82.9260,4.0,37.303948277983,26.400757564888,-99999.0,'1111122,1111122,1199999999' 
COMPS,ioos:station:USF.COMPS:C10:1,2012-01-13T05:00:00Z,27.1690,-82.9260,4.0,36.027373385104,27.202941017471,-99999.0,'1111122,1111122,1199999999' 
COMPS,ioos:station:USF.COMPS:C10:1,2012-01-13T06:00:00Z,27.1690,-82.9260,4.0,0.0,0.0,-99999.0,'1114422,1114422,1199999999' 
COMPS,ioos:station:USF.COMPS:C10:1,2012-01-13T07:00:00Z,27.1690,-82.9260,4.0,0.0,0.0,-99999.0,'1114422,1114422,1199999999' 
COMPS,ioos:station:USF.COMPS:C10:1,2012-01-13T09:00:00Z,27.1690,-82.9260,4.0,0.0,0.0,-99999.0,'1114422,1114422,1199999999' 
COMPS,ioos:station:USF.COMPS:C10:1,2012-01-13T12:00:00Z,27.1690,-82.9260,4.0,26.565051177078,35.777087639997,-99999.0,'1111122,1111122,1199999999' 
COMPS,ioos:station:USF.COMPS:C10:1,2012-01-13T14:00:00Z,27.1690,-82.9260,4.0,116.56505117708,4.4721359549996,-99999.0,'1111122,1111122,1199999999' 
COMPS,ioos:station:USF.COMPS:C10:1,2012-01-13T15:00:00Z,27.1690,-82.9260,4.0,131.63353933657,12.041594578792,-99999.0,'1111122,1111122,1199999999' 
COMPS,ioos:station:USF.COMPS:C10:1,2012-01-13T16:00:00Z,27.1690,-82.9260,4.0,138.01278750418,13.453624047074,-99999.0,'1111122,1111122,1199999999' 
COMPS,ioos:station:USF.COMPS:C10:1,2012-01-13T17:00:00Z,27.1690,-82.9260,4.0,158.19859051365,10.770329614269,-99999.0,'1111122,1111122,1199999999' 
COMPS,ioos:station:USF.COMPS:C10:1,2012-01-13T18:00:00Z,27.1690,-82.9260,4.0,153.43494882292,13.416407864999,-99999.0,'1111122,1111122,1199999999' 
COMPS,ioos:station:USF.COMPS:C10:1,2012-01-13T19:00:00Z,27.1690,-82.9260,4.0,162.89727103095,13.601470508735,-99999.0,'1111122,1111122,1199999999' 
COMPS,ioos:station:USF.COMPS:C10:1,2012-01-13T20:00:00Z,27.1690,-82.9260,4.0,160.0168934781,11.70469991072,-99999.0,'1111122,1111122,1199999999' 
COMPS,ioos:station:USF.COMPS:C10:1,2012-01-13T21:00:00Z,27.1690,-82.9260,4.0,180.0,13.0,-99999.0,'1111122,1111122,1199999999' 
COMPS,ioos:station:USF.COMPS:C10:1,2012-01-13T22:00:00Z,27.1690,-82.9260,4.0,161.56505117708,12.649110640674,-99999.0,'1111122,1111122,1199999999' 
COMPS,ioos:station:USF.COMPS:C10:1,2012-01-13T23:00:00Z,27.1690,-82.9260,4.0,186.34019174591,9.0553851381374,-99999.0,'1111122,1111122,1199999999' 
COMPS,ioos:station:USF.COMPS:C10:1,2012-01-14T00:00:00Z,27.1690,-82.9260,4.0,191.30993247402,10.198039027186,-99999.0,'1111122,1111122,1199999999' 
COMPS,ioos:station:USF.COMPS:C10:1,2012-01-14T01:00:00Z,27.1690,-82.9260,4.0,159.44395478042,8.5440037453175,-99999.0,'1111122,1111122,1199999999' 